カタログに戻る

THAICOM 2

運用中通信GEO
NORAD 23314·PAYLOAD·🇹🇭 Thailand

打ち上げ Oct 8, 1994 から Guiana Space Centre

Loading…

TLE

最新Source: Space-Track

元期: Sep 14, 2026, 12:06 UTC

1 23314U 94065B   26257.50434552  .00000070  00000-0  00000-0 0  9994
2 23314  11.6379  37.8108 0004631 187.5700 184.2222  0.99587100 47260

AllMySatでTHAICOM 2をリアルタイム追跡

Download on the App Store